contact:dominique.lefevre@mio.osupytheas.fr, maurice.libes@osupytheas.fr, didier.mallarino@osupytheas.fr
Project:EMSO http://www.emso-fr.org/EMSO-France
Depth: 2436.0 m
Title:EMSO Ligure Ouest : Data MII capteur MICROCAT
DateTime_Computer,Latitude,Longitude,Temperature,Conductivity,Pressure,DateTime_Instrument
DateTime_Computer,Latitude,Longitude,degC,S m-1,dbar,DateTime_Instrument
2020-07-12T00:00:02Z,42.805,6.029,13.2974,4.59978,2470.156,2020-7-12T02:00:48Z
2020-07-12T00:03:05Z,42.805,6.029,13.2978,4.59978,2470.156,2020-7-12T02:03:51Z
2020-07-12T00:06:08Z,42.805,6.029,13.2977,4.59976,2470.18,2020-7-12T02:06:55Z
2020-07-12T00:09:11Z,42.805,6.029,13.2977,4.59976,2470.156,2020-7-12T02:09:58Z
2020-07-12T00:12:14Z,42.805,6.029,13.2972,4.59977,2470.18,2020-7-12T02:13:01Z
2020-07-12T00:15:18Z,42.805,6.029,13.2977,4.59977,2470.194,2020-7-12T02:16:04Z
2020-07-12T00:18:21Z,42.805,6.029,13.2976,4.59976,2470.156,2020-7-12T02:19:07Z
2020-07-12T00:21:24Z,42.805,6.029,13.2974,4.59978,2470.194,2020-7-12T02:22:10Z
2020-07-12T00:24:27Z,42.805,6.029,13.2976,4.59976,2470.171,2020-7-12T02:25:14Z
2020-07-12T00:27:30Z,42.805,6.029,13.2975,4.59976,2470.18,2020-7-12T02:28:17Z
2020-07-12T00:30:34Z,42.805,6.029,13.2975,4.59977,2470.156,2020-7-12T02:31:20Z
2020-07-12T00:33:37Z,42.805,6.029,13.2977,4.59978,2470.18,2020-7-12T02:34:24Z
2020-07-12T00:36:40Z,42.805,6.029,13.2974,4.59976,2470.194,2020-7-12T02:37:27Z
2020-07-12T00:39:44Z,42.805,6.029,13.2978,4.59978,2470.147,2020-7-12T02:40:30Z
2020-07-12T00:42:47Z,42.805,6.029,13.2975,4.59977,2470.156,2020-7-12T02:43:34Z
2020-07-12T00:45:50Z,42.805,6.029,13.2977,4.59977,2470.156,2020-7-12T02:46:37Z
2020-07-12T00:48:53Z,42.805,6.029,13.2979,4.59978,2470.171,2020-7-12T02:49:40Z
2020-07-12T00:51:57Z,42.805,6.029,13.2976,4.59978,2470.166,2020-7-12T02:52:43Z
2020-07-12T00:55:00Z,42.805,6.029,13.2976,4.59978,2470.203,2020-7-12T02:55:46Z
2020-07-12T00:58:03Z,42.805,6.029,13.2977,4.59977,2470.156,2020-7-12T02:58:50Z
2020-07-12T01:01:06Z,42.805,6.029,13.2976,4.59978,2470.156,2020-7-12T03:01:53Z
2020-07-12T01:04:10Z,42.805,6.029,13.2974,4.59978,2470.171,2020-7-12T03:04:56Z
2020-07-12T01:07:13Z,42.805,6.029,13.2979,4.59976,2470.194,2020-7-12T03:07:59Z
2020-07-12T01:10:16Z,42.805,6.029,13.2974,4.59978,2470.217,2020-7-12T03:11:03Z
2020-07-12T01:13:19Z,42.805,6.029,13.2971,4.59978,2470.18,2020-7-12T03:14:06Z
2020-07-12T01:16:23Z,42.805,6.029,13.2977,4.59979,2470.18,2020-7-12T03:17:09Z
2020-07-12T01:19:26Z,42.805,6.029,13.2974,4.59977,2470.156,2020-7-12T03:20:12Z
2020-07-12T01:22:29Z,42.805,6.029,13.2974,4.59978,2470.133,2020-7-12T03:23:15Z
2020-07-12T01:25:32Z,42.805,6.029,13.2974,4.59978,2470.171,2020-7-12T03:26:19Z
2020-07-12T01:28:35Z,42.805,6.029,13.2972,4.59978,2470.194,2020-7-12T03:29:22Z
2020-07-12T01:31:39Z,42.805,6.029,13.2979,4.59979,2470.18,2020-7-12T03:32:25Z
2020-07-12T01:34:42Z,42.805,6.029,13.2974,4.59978,2470.147,2020-7-12T03:35:28Z
2020-07-12T01:37:45Z,42.805,6.029,13.2977,4.59978,2470.133,2020-7-12T03:38:32Z
2020-07-12T01:40:48Z,42.805,6.029,13.2977,4.59978,2470.156,2020-7-12T03:41:35Z
2020-07-12T01:43:52Z,42.805,6.029,13.2975,4.59978,2470.171,2020-7-12T03:44:38Z
2020-07-12T01:46:55Z,42.805,6.029,13.2976,4.59978,2470.147,2020-7-12T03:47:42Z
2020-07-12T01:49:58Z,42.805,6.029,13.2976,4.59978,2470.147,2020-7-12T03:50:45Z
2020-07-12T01:53:02Z,42.805,6.029,13.2976,4.59976,2470.156,2020-7-12T03:53:48Z
2020-07-12T01:56:05Z,42.805,6.029,13.2979,4.59978,2470.156,2020-7-12T03:56:51Z
2020-07-12T01:59:08Z,42.805,6.029,13.2974,4.59978,2470.133,2020-7-12T03:59:55Z
2020-07-12T02:02:11Z,42.805,6.029,13.2974,4.59978,2470.156,2020-7-12T04:02:58Z
2020-07-12T02:05:15Z,42.805,6.029,13.2975,4.59980,2470.147,2020-7-12T04:06:01Z
2020-07-12T02:08:18Z,42.805,6.029,13.2979,4.59978,2470.133,2020-7-12T04:09:04Z
2020-07-12T02:11:21Z,42.805,6.029,13.2975,4.59977,2470.11,2020-7-12T04:12:08Z
2020-07-12T02:14:24Z,42.805,6.029,13.2972,4.59980,2470.133,2020-7-12T04:15:11Z
2020-07-12T02:17:28Z,42.805,6.029,13.2973,4.59978,2470.147,2020-7-12T04:18:14Z
2020-07-12T02:20:31Z,42.805,6.029,13.2975,4.59978,2470.156,2020-7-12T04:21:17Z
2020-07-12T02:23:34Z,42.805,6.029,13.2974,4.59979,2470.147,2020-7-12T04:24:21Z
2020-07-12T02:26:37Z,42.805,6.029,13.2974,4.59977,2470.133,2020-7-12T04:27:24Z
2020-07-12T02:29:41Z,42.805,6.029,13.2976,4.59979,2470.133,2020-7-12T04:30:27Z
2020-07-12T02:32:44Z,42.805,6.029,13.2978,4.59978,2470.124,2020-7-12T04:33:30Z
2020-07-12T02:35:47Z,42.805,6.029,13.2975,4.59977,2470.124,2020-7-12T04:36:34Z
2020-07-12T02:38:50Z,42.805,6.029,13.2975,4.59978,2470.124,2020-7-12T04:39:37Z
2020-07-12T02:41:54Z,42.805,6.029,13.2976,4.59978,2470.124,2020-7-12T04:42:40Z
2020-07-12T02:44:57Z,42.805,6.029,13.2977,4.59979,2470.171,2020-7-12T04:45:43Z
2020-07-12T02:48:00Z,42.805,6.029,13.2976,4.59979,2470.133,2020-7-12T04:48:47Z
2020-07-12T02:51:03Z,42.805,6.029,13.2976,4.59979,2470.147,2020-7-12T04:51:50Z
2020-07-12T02:54:07Z,42.805,6.029,13.2979,4.59978,2470.133,2020-7-12T04:54:53Z
2020-07-12T02:57:10Z,42.805,6.029,13.2972,4.59978,2470.124,2020-7-12T04:57:56Z
2020-07-12T03:00:13Z,42.805,6.029,13.2976,4.59978,2470.133,2020-7-12T05:01:00Z
2020-07-12T03:03:16Z,42.805,6.029,13.2976,4.59976,2470.124,2020-7-12T05:04:03Z
2020-07-12T03:06:19Z,42.805,6.029,13.2975,4.59976,2470.133,2020-7-12T05:07:06Z
2020-07-12T03:09:23Z,42.805,6.029,13.2976,4.59978,2470.133,2020-7-12T05:10:09Z
2020-07-12T03:12:26Z,42.805,6.029,13.2976,4.59976,2470.087,2020-7-12T05:13:12Z
2020-07-12T03:15:29Z,42.805,6.029,13.2974,4.59978,2470.1,2020-7-12T05:16:16Z
2020-07-12T03:18:33Z,42.805,6.029,13.2975,4.59976,2470.124,2020-7-12T05:19:19Z
2020-07-12T03:21:36Z,42.805,6.029,13.2974,4.59976,2470.133,2020-7-12T05:22:22Z
2020-07-12T03:24:39Z,42.805,6.029,13.2972,4.59978,2470.133,2020-7-12T05:25:25Z
2020-07-12T03:27:42Z,42.805,6.029,13.2976,4.59978,2470.1,2020-7-12T05:28:29Z
2020-07-12T03:30:45Z,42.805,6.029,13.2975,4.59977,2470.11,2020-7-12T05:31:32Z
2020-07-12T03:33:49Z,42.805,6.029,13.2978,4.59977,2470.11,2020-7-12T05:34:35Z
2020-07-12T03:36:52Z,42.805,6.029,13.2975,4.59977,2470.087,2020-7-12T05:37:39Z
2020-07-12T03:39:55Z,42.805,6.029,13.2977,4.59977,2470.11,2020-7-12T05:40:42Z
2020-07-12T03:42:59Z,42.805,6.029,13.2976,4.59977,2470.11,2020-7-12T05:43:45Z
2020-07-12T03:46:02Z,42.805,6.029,13.2975,4.59978,2470.1,2020-7-12T05:46:48Z
2020-07-12T03:49:05Z,42.805,6.029,13.2976,4.59976,2470.11,2020-7-12T05:49:52Z
2020-07-12T03:52:08Z,42.805,6.029,13.2975,4.59977,2470.1,2020-7-12T05:52:55Z
2020-07-12T03:55:12Z,42.805,6.029,13.2974,4.59976,2470.11,2020-7-12T05:55:58Z
2020-07-12T03:58:15Z,42.805,6.029,13.2976,4.59978,2470.11,2020-7-12T05:59:01Z
2020-07-12T04:01:18Z,42.805,6.029,13.2974,4.59976,2470.087,2020-7-12T06:02:05Z
2020-07-12T04:04:21Z,42.805,6.029,13.2974,4.59978,2470.11,2020-7-12T06:05:08Z
2020-07-12T04:07:25Z,42.805,6.029,13.2976,4.59976,2470.063,2020-7-12T06:08:11Z
2020-07-12T04:10:28Z,42.805,6.029,13.2974,4.59978,2470.1,2020-7-12T06:11:15Z
2020-07-12T04:13:31Z,42.805,6.029,13.2974,4.59976,2470.073,2020-7-12T06:14:18Z
2020-07-12T04:16:34Z,42.805,6.029,13.2974,4.59977,2470.087,2020-7-12T06:17:21Z
2020-07-12T04:19:38Z,42.805,6.029,13.2974,4.59978,2470.096,2020-7-12T06:20:24Z
2020-07-12T04:22:41Z,42.805,6.029,13.2974,4.59977,2470.087,2020-7-12T06:23:27Z
2020-07-12T04:25:44Z,42.805,6.029,13.2978,4.59976,2470.077,2020-7-12T06:26:31Z
2020-07-12T04:28:48Z,42.805,6.029,13.2974,4.59977,2470.063,2020-7-12T06:29:34Z
2020-07-12T04:31:51Z,42.805,6.029,13.2978,4.59976,2470.063,2020-7-12T06:32:37Z
2020-07-12T04:34:54Z,42.805,6.029,13.2976,4.59978,2470.077,2020-7-12T06:35:41Z
2020-07-12T04:37:58Z,42.805,6.029,13.2975,4.59977,2470.11,2020-7-12T06:38:44Z
2020-07-12T04:41:01Z,42.805,6.029,13.2974,4.59978,2470.1,2020-7-12T06:41:47Z
2020-07-12T04:44:04Z,42.805,6.029,13.2975,4.59979,2470.087,2020-7-12T06:44:50Z
2020-07-12T04:47:07Z,42.805,6.029,13.2972,4.59977,2470.087,2020-7-12T06:47:54Z
2020-07-12T04:50:10Z,42.805,6.029,13.2976,4.59978,2470.124,2020-7-12T06:50:57Z
2020-07-12T04:53:14Z,42.805,6.029,13.2969,4.59977,2470.077,2020-7-12T06:54:00Z
2020-07-12T04:56:17Z,42.805,6.029,13.2974,4.59976,2470.087,2020-7-12T06:57:03Z
2020-07-12T04:59:20Z,42.805,6.029,13.2973,4.59976,2470.1,2020-7-12T07:00:07Z
2020-07-12T05:02:23Z,42.805,6.029,13.2973,4.59977,2470.087,2020-7-12T07:03:10Z
2020-07-12T05:05:27Z,42.805,6.029,13.2977,4.59976,2470.1,2020-7-12T07:06:13Z
2020-07-12T05:08:30Z,42.805,6.029,13.2974,4.59978,2470.063,2020-7-12T07:09:16Z
2020-07-12T05:11:33Z,42.805,6.029,13.2978,4.59976,2470.063,2020-7-12T07:12:20Z
2020-07-12T05:14:36Z,42.805,6.029,13.2973,4.59977,2470.063,2020-7-12T07:15:23Z
2020-07-12T05:17:39Z,42.805,6.029,13.2976,4.59976,2470.087,2020-7-12T07:18:26Z
2020-07-12T05:20:43Z,42.805,6.029,13.2976,4.59976,2470.087,2020-7-12T07:21:29Z
2020-07-12T05:23:46Z,42.805,6.029,13.2976,4.59977,2470.04,2020-7-12T07:24:32Z
2020-07-12T05:26:49Z,42.805,6.029,13.2977,4.59976,2470.087,2020-7-12T07:27:36Z
2020-07-12T05:29:52Z,42.805,6.029,13.2976,4.59976,2470.077,2020-7-12T07:30:39Z
2020-07-12T05:32:56Z,42.805,6.029,13.2974,4.59976,2470.1,2020-7-12T07:33:42Z
2020-07-12T05:35:59Z,42.805,6.029,13.2972,4.59977,2470.04,2020-7-12T07:36:45Z
2020-07-12T05:39:02Z,42.805,6.029,13.2976,4.59977,2470.04,2020-7-12T07:39:49Z
2020-07-12T05:42:06Z,42.805,6.029,13.2977,4.59976,2470.077,2020-7-12T07:42:52Z
2020-07-12T05:45:09Z,42.805,6.029,13.2975,4.59976,2470.063,2020-7-12T07:45:55Z
2020-07-12T05:48:12Z,42.805,6.029,13.2976,4.59976,2470.063,2020-7-12T07:48:59Z
2020-07-12T05:51:15Z,42.805,6.029,13.2973,4.59977,2470.063,2020-7-12T07:52:02Z
2020-07-12T05:54:18Z,42.805,6.029,13.2975,4.59976,2470.063,2020-7-12T07:55:05Z
2020-07-12T05:57:22Z,42.805,6.029,13.2973,4.59976,2470.063,2020-7-12T07:58:08Z
2020-07-12T06:00:25Z,42.805,6.029,13.2974,4.59977,2470.063,2020-7-12T08:01:11Z
2020-07-12T06:03:28Z,42.805,6.029,13.2979,4.59976,2470.077,2020-7-12T08:04:15Z
2020-07-12T06:06:31Z,42.805,6.029,13.2976,4.59977,2470.053,2020-7-12T08:07:18Z
2020-07-12T06:09:35Z,42.805,6.029,13.2974,4.59976,2470.063,2020-7-12T08:10:21Z
2020-07-12T06:12:38Z,42.805,6.029,13.2971,4.59976,2470.063,2020-7-12T08:13:25Z
2020-07-12T06:15:41Z,42.805,6.029,13.2975,4.59978,2470.053,2020-7-12T08:16:28Z
2020-07-12T06:18:45Z,42.805,6.029,13.2975,4.59976,2470.077,2020-7-12T08:19:31Z
2020-07-12T06:21:48Z,42.805,6.029,13.2977,4.59978,2470.053,2020-7-12T08:22:34Z
2020-07-12T06:24:51Z,42.805,6.029,13.2976,4.59976,2470.077,2020-7-12T08:25:38Z
2020-07-12T06:27:55Z,42.805,6.029,13.2974,4.59976,2470.04,2020-7-12T08:28:41Z
2020-07-12T06:30:58Z,42.805,6.029,13.2975,4.59976,2470.063,2020-7-12T08:31:44Z
2020-07-12T06:34:01Z,42.805,6.029,13.2972,4.59976,2470.063,2020-7-12T08:34:48Z
2020-07-12T06:37:04Z,42.805,6.029,13.2976,4.59976,2470.063,2020-7-12T08:37:51Z
2020-07-12T06:40:08Z,42.805,6.029,13.2976,4.59976,2470.063,2020-7-12T08:40:54Z
2020-07-12T06:43:11Z,42.805,6.029,13.2977,4.59976,2470.1,2020-7-12T08:43:58Z
2020-07-12T06:46:14Z,42.805,6.029,13.2971,4.59977,2470.04,2020-7-12T08:47:01Z
2020-07-12T06:49:18Z,42.805,6.029,13.2976,4.59976,2470.053,2020-7-12T08:50:04Z
2020-07-12T06:52:21Z,42.805,6.029,13.2976,4.59976,2470.063,2020-7-12T08:53:07Z
2020-07-12T06:55:24Z,42.805,6.029,13.2978,4.59976,2470.077,2020-7-12T08:56:11Z
2020-07-12T06:58:27Z,42.805,6.029,13.2976,4.59976,2470.03,2020-7-12T08:59:14Z
2020-07-12T07:01:31Z,42.805,6.029,13.2974,4.59976,2470.077,2020-7-12T09:02:17Z
2020-07-12T07:04:34Z,42.805,6.029,13.2976,4.59976,2470.063,2020-7-12T09:05:20Z
2020-07-12T07:07:37Z,42.805,6.029,13.2976,4.59976,2470.017,2020-7-12T09:08:23Z
2020-07-12T07:10:40Z,42.805,6.029,13.2976,4.59975,2470.053,2020-7-12T09:11:27Z
2020-07-12T07:13:43Z,42.805,6.029,13.2978,4.59976,2470.077,2020-7-12T09:14:30Z
2020-07-12T07:16:47Z,42.805,6.029,13.2974,4.59976,2470.04,2020-7-12T09:17:33Z
2020-07-12T07:19:50Z,42.805,6.029,13.2976,4.59976,2470.063,2020-7-12T09:20:36Z
2020-07-12T07:22:53Z,42.805,6.029,13.2974,4.59976,2470.077,2020-7-12T09:23:40Z
2020-07-12T07:25:57Z,42.805,6.029,13.2977,4.59976,2470.087,2020-7-12T09:26:43Z
2020-07-12T07:29:00Z,42.805,6.029,13.2971,4.59976,2470.053,2020-7-12T09:29:46Z
2020-07-12T07:32:03Z,42.805,6.029,13.2976,4.59976,2470.1,2020-7-12T09:32:49Z
2020-07-12T07:35:06Z,42.805,6.029,13.2974,4.59976,2470.077,2020-7-12T09:35:53Z
2020-07-12T07:38:09Z,42.805,6.029,13.2976,4.59976,2470.017,2020-7-12T09:38:56Z
2020-07-12T07:41:13Z,42.805,6.029,13.2976,4.59976,2470.063,2020-7-12T09:41:59Z
2020-07-12T07:44:16Z,42.805,6.029,13.2973,4.59978,2470.087,2020-7-12T09:45:02Z
2020-07-12T07:47:19Z,42.805,6.029,13.2974,4.59976,2470.063,2020-7-12T09:48:06Z
2020-07-12T07:50:22Z,42.805,6.029,13.2976,4.59976,2470.063,2020-7-12T09:51:09Z
2020-07-12T07:53:26Z,42.805,6.029,13.2981,4.59976,2470.04,2020-7-12T09:54:12Z
2020-07-12T07:56:29Z,42.805,6.029,13.2972,4.59976,2470.087,2020-7-12T09:57:15Z
2020-07-12T07:59:32Z,42.805,6.029,13.2972,4.59977,2470.063,2020-7-12T10:00:19Z
2020-07-12T08:02:35Z,42.805,6.029,13.2976,4.59976,2470.04,2020-7-12T10:03:22Z
2020-07-12T08:05:39Z,42.805,6.029,13.2977,4.59976,2470.063,2020-7-12T10:06:25Z
2020-07-12T08:08:42Z,42.805,6.029,13.2974,4.59976,2470.053,2020-7-12T10:09:28Z
2020-07-12T08:11:45Z,42.805,6.029,13.2976,4.59976,2470.063,2020-7-12T10:12:32Z
2020-07-12T08:14:48Z,42.805,6.029,13.2976,4.59976,2470.04,2020-7-12T10:15:35Z
2020-07-12T08:17:52Z,42.805,6.029,13.2974,4.59976,2470.04,2020-7-12T10:18:38Z
2020-07-12T08:20:55Z,42.805,6.029,13.2971,4.59976,2470.063,2020-7-12T10:21:41Z
2020-07-12T08:23:58Z,42.805,6.029,13.2973,4.59977,2470.063,2020-7-12T10:24:45Z
2020-07-12T08:27:01Z,42.805,6.029,13.2977,4.59976,2470.053,2020-7-12T10:27:48Z
2020-07-12T08:30:05Z,42.805,6.029,13.2974,4.59976,2470.053,2020-7-12T10:30:51Z
2020-07-12T08:33:08Z,42.805,6.029,13.2971,4.59975,2470.077,2020-7-12T10:33:54Z
2020-07-12T08:36:11Z,42.805,6.029,13.2974,4.59975,2470.063,2020-7-12T10:36:58Z
2020-07-12T08:39:14Z,42.805,6.029,13.2976,4.59976,2470.026,2020-7-12T10:40:01Z
2020-07-12T08:42:18Z,42.805,6.029,13.2973,4.59976,2470.063,2020-7-12T10:43:04Z
2020-07-12T08:45:21Z,42.805,6.029,13.2976,4.59976,2470.049,2020-7-12T10:46:07Z
2020-07-12T08:48:24Z,42.805,6.029,13.2976,4.59975,2470.04,2020-7-12T10:49:11Z
2020-07-12T08:51:27Z,42.805,6.029,13.2971,4.59976,2470.1,2020-7-12T10:52:14Z
2020-07-12T08:54:31Z,42.805,6.029,13.2972,4.59976,2470.063,2020-7-12T10:55:17Z
2020-07-12T08:57:34Z,42.805,6.029,13.2974,4.59975,2470.1,2020-7-12T10:58:20Z
2020-07-12T09:00:37Z,42.805,6.029,13.2974,4.59976,2470.11,2020-7-12T11:01:24Z
2020-07-12T09:03:40Z,42.805,6.029,13.2975,4.59976,2470.04,2020-7-12T11:04:27Z
2020-07-12T09:06:44Z,42.805,6.029,13.2976,4.59977,2470.1,2020-7-12T11:07:30Z
2020-07-12T09:09:47Z,42.805,6.029,13.2978,4.59975,2470.04,2020-7-12T11:10:33Z
2020-07-12T09:12:50Z,42.805,6.029,13.2977,4.59976,2470.063,2020-7-12T11:13:37Z
2020-07-12T09:15:53Z,42.805,6.029,13.2975,4.59976,2470.1,2020-7-12T11:16:40Z
2020-07-12T09:18:57Z,42.805,6.029,13.2977,4.59978,2470.087,2020-7-12T11:19:43Z
2020-07-12T09:22:00Z,42.805,6.029,13.2977,4.59976,2470.04,2020-7-12T11:22:46Z
2020-07-12T09:25:03Z,42.805,6.029,13.2970,4.59975,2470.063,2020-7-12T11:25:50Z
2020-07-12T09:28:06Z,42.805,6.029,13.2974,4.59976,2470.063,2020-7-12T11:28:53Z
2020-07-12T09:31:09Z,42.805,6.029,13.2975,4.59974,2470.077,2020-7-12T11:31:56Z
2020-07-12T09:34:13Z,42.805,6.029,13.2976,4.59976,2470.077,2020-7-12T11:34:59Z
2020-07-12T09:37:16Z,42.805,6.029,13.2976,4.59976,2470.077,2020-7-12T11:38:02Z
2020-07-12T09:40:19Z,42.805,6.029,13.2975,4.59976,2470.087,2020-7-12T11:41:06Z
2020-07-12T09:43:22Z,42.805,6.029,13.2975,4.59976,2470.087,2020-7-12T11:44:09Z
2020-07-12T09:46:26Z,42.805,6.029,13.2979,4.59976,2470.1,2020-7-12T11:47:12Z
2020-07-12T09:49:29Z,42.805,6.029,13.2971,4.59976,2470.1,2020-7-12T11:50:16Z
2020-07-12T09:52:33Z,42.805,6.029,13.2974,4.59976,2470.11,2020-7-12T11:53:19Z
2020-07-12T09:55:36Z,42.805,6.029,13.2974,4.59976,2470.133,2020-7-12T11:56:22Z
2020-07-12T09:58:39Z,42.805,6.029,13.2974,4.59976,2470.11,2020-7-12T11:59:25Z
2020-07-12T10:01:42Z,42.805,6.029,13.2976,4.59976,2470.063,2020-7-12T12:02:29Z
2020-07-12T10:04:46Z,42.805,6.029,13.2971,4.59976,2470.1,2020-7-12T12:05:32Z
2020-07-12T10:07:49Z,42.805,6.029,13.2974,4.59975,2470.11,2020-7-12T12:08:35Z
2020-07-12T10:10:52Z,42.805,6.029,13.2974,4.59976,2470.087,2020-7-12T12:11:39Z
2020-07-12T10:13:55Z,42.805,6.029,13.2973,4.59976,2470.11,2020-7-12T12:14:42Z
2020-07-12T10:16:59Z,42.805,6.029,13.2976,4.59976,2470.11,2020-7-12T12:17:45Z
2020-07-12T10:20:02Z,42.805,6.029,13.2980,4.59976,2470.11,2020-7-12T12:20:49Z
2020-07-12T10:23:05Z,42.805,6.029,13.2973,4.59976,2470.11,2020-7-12T12:23:52Z
2020-07-12T10:26:09Z,42.805,6.029,13.2976,4.59976,2470.133,2020-7-12T12:26:55Z
2020-07-12T10:29:12Z,42.805,6.029,13.2974,4.59976,2470.11,2020-7-12T12:29:58Z
2020-07-12T10:32:15Z,42.805,6.029,13.2978,4.59976,2470.124,2020-7-12T12:33:02Z
2020-07-12T10:35:18Z,42.805,6.029,13.2981,4.59976,2470.077,2020-7-12T12:36:05Z
2020-07-12T10:38:22Z,42.805,6.029,13.2976,4.59977,2470.1,2020-7-12T12:39:08Z
2020-07-12T10:41:25Z,42.805,6.029,13.2973,4.59976,2470.11,2020-7-12T12:42:11Z
2020-07-12T10:44:28Z,42.805,6.029,13.2976,4.59976,2470.11,2020-7-12T12:45:15Z
2020-07-12T10:47:31Z,42.805,6.029,13.2976,4.59976,2470.124,2020-7-12T12:48:18Z
2020-07-12T10:50:35Z,42.805,6.029,13.2977,4.59976,2470.11,2020-7-12T12:51:21Z
2020-07-12T10:53:38Z,42.805,6.029,13.2976,4.59976,2470.1,2020-7-12T12:54:24Z
2020-07-12T10:56:41Z,42.805,6.029,13.2971,4.59977,2470.124,2020-7-12T12:57:28Z
2020-07-12T10:59:44Z,42.805,6.029,13.2976,4.59976,2470.087,2020-7-12T13:00:31Z
2020-07-12T11:02:48Z,42.805,6.029,13.2974,4.59976,2470.11,2020-7-12T13:03:34Z
2020-07-12T11:05:51Z,42.805,6.029,13.2974,4.59976,2470.124,2020-7-12T13:06:37Z
2020-07-12T11:08:54Z,42.805,6.029,13.2975,4.59976,2470.1,2020-7-12T13:09:41Z
2020-07-12T11:11:57Z,42.805,6.029,13.2974,4.59976,2470.087,2020-7-12T13:12:44Z
2020-07-12T11:15:01Z,42.805,6.029,13.2974,4.59977,2470.087,2020-7-12T13:15:47Z
2020-07-12T11:18:04Z,42.805,6.029,13.2974,4.59975,2470.11,2020-7-12T13:18:50Z
2020-07-12T11:21:07Z,42.805,6.029,13.2974,4.59976,2470.124,2020-7-12T13:21:54Z
2020-07-12T11:24:10Z,42.805,6.029,13.2975,4.59975,2470.087,2020-7-12T13:24:57Z
2020-07-12T11:27:14Z,42.805,6.029,13.2976,4.59977,2470.11,2020-7-12T13:28:00Z
2020-07-12T11:30:17Z,42.805,6.029,13.2973,4.59975,2470.087,2020-7-12T13:31:04Z
2020-07-12T11:33:20Z,42.805,6.029,13.2970,4.59976,2470.133,2020-7-12T13:34:07Z
2020-07-12T11:36:24Z,42.805,6.029,13.2971,4.59975,2470.124,2020-7-12T13:37:10Z
2020-07-12T11:39:27Z,42.805,6.029,13.2974,4.59976,2470.11,2020-7-12T13:40:13Z
2020-07-12T11:42:30Z,42.805,6.029,13.2974,4.59976,2470.087,2020-7-12T13:43:17Z
2020-07-12T11:45:34Z,42.805,6.029,13.2976,4.59976,2470.124,2020-7-12T13:46:20Z
2020-07-12T11:48:37Z,42.805,6.029,13.2976,4.59977,2470.11,2020-7-12T13:49:23Z
2020-07-12T11:51:40Z,42.805,6.029,13.2975,4.59975,2470.11,2020-7-12T13:52:27Z
2020-07-12T11:54:44Z,42.805,6.029,13.2976,4.59976,2470.124,2020-7-12T13:55:30Z
2020-07-12T11:57:47Z,42.805,6.029,13.2975,4.59976,2470.1,2020-7-12T13:58:33Z
2020-07-12T12:00:50Z,42.805,6.029,13.2974,4.59976,2470.133,2020-7-12T14:01:37Z
2020-07-12T12:03:54Z,42.805,6.029,13.2975,4.59976,2470.11,2020-7-12T14:04:40Z
2020-07-12T12:06:57Z,42.805,6.029,13.2975,4.59975,2470.124,2020-7-12T14:07:43Z
2020-07-12T12:10:00Z,42.805,6.029,13.2974,4.59978,2470.124,2020-7-12T14:10:47Z
2020-07-12T12:13:03Z,42.805,6.029,13.2973,4.59976,2470.11,2020-7-12T14:13:50Z
2020-07-12T12:16:07Z,42.805,6.029,13.2973,4.59975,2470.11,2020-7-12T14:16:53Z
2020-07-12T12:19:10Z,42.805,6.029,13.2974,4.59976,2470.11,2020-7-12T14:19:56Z
2020-07-12T12:22:13Z,42.805,6.029,13.2974,4.59976,2470.11,2020-7-12T14:23:00Z
2020-07-12T12:25:16Z,42.805,6.029,13.2974,4.59975,2470.11,2020-7-12T14:26:03Z
2020-07-12T12:28:19Z,42.805,6.029,13.2975,4.59976,2470.124,2020-7-12T14:29:06Z
2020-07-12T12:31:23Z,42.805,6.029,13.2971,4.59975,2470.063,2020-7-12T14:32:09Z
2020-07-12T12:34:26Z,42.805,6.029,13.2971,4.59976,2470.124,2020-7-12T14:35:12Z
2020-07-12T12:37:29Z,42.805,6.029,13.2974,4.59977,2470.087,2020-7-12T14:38:16Z
2020-07-12T12:40:32Z,42.805,6.029,13.2974,4.59976,2470.11,2020-7-12T14:41:19Z
2020-07-12T12:43:36Z,42.805,6.029,13.2974,4.59976,2470.124,2020-7-12T14:44:22Z
2020-07-12T12:46:39Z,42.805,6.029,13.2971,4.59976,2470.11,2020-7-12T14:47:25Z
2020-07-12T12:49:42Z,42.805,6.029,13.2973,4.59975,2470.124,2020-7-12T14:50:29Z
2020-07-12T12:52:45Z,42.805,6.029,13.2976,4.59976,2470.11,2020-7-12T14:53:32Z
2020-07-12T12:55:49Z,42.805,6.029,13.2975,4.59976,2470.11,2020-7-12T14:56:35Z
2020-07-12T12:58:52Z,42.805,6.029,13.2974,4.59978,2470.147,2020-7-12T14:59:38Z
2020-07-12T13:01:55Z,42.805,6.029,13.2976,4.59978,2470.124,2020-7-12T15:02:42Z
2020-07-12T13:04:58Z,42.805,6.029,13.2976,4.59976,2470.124,2020-7-12T15:05:45Z
2020-07-12T13:08:02Z,42.805,6.029,13.2974,4.59976,2470.087,2020-7-12T15:08:48Z
2020-07-12T13:11:05Z,42.805,6.029,13.2975,4.59977,2470.124,2020-7-12T15:11:51Z
2020-07-12T13:14:08Z,42.805,6.029,13.2976,4.59976,2470.1,2020-7-12T15:14:54Z
2020-07-12T13:17:11Z,42.805,6.029,13.2979,4.59976,2470.087,2020-7-12T15:17:58Z
2020-07-12T13:20:14Z,42.805,6.029,13.2974,4.59976,2470.087,2020-7-12T15:21:01Z
2020-07-12T13:23:18Z,42.805,6.029,13.2980,4.59976,2470.1,2020-7-12T15:24:04Z
2020-07-12T13:26:21Z,42.805,6.029,13.2978,4.59976,2470.087,2020-7-12T15:27:07Z
2020-07-12T13:29:24Z,42.805,6.029,13.2977,4.59976,2470.1,2020-7-12T15:30:11Z
2020-07-12T13:32:27Z,42.805,6.029,13.2974,4.59976,2470.147,2020-7-12T15:33:14Z
2020-07-12T13:35:31Z,42.805,6.029,13.2974,4.59976,2470.11,2020-7-12T15:36:17Z
2020-07-12T13:38:34Z,42.805,6.029,13.2976,4.59976,2470.053,2020-7-12T15:39:20Z
2020-07-12T13:41:37Z,42.805,6.029,13.2974,4.59978,2470.087,2020-7-12T15:42:24Z
2020-07-12T13:44:40Z,42.805,6.029,13.2972,4.59976,2470.087,2020-7-12T15:45:27Z
2020-07-12T13:47:44Z,42.805,6.029,13.2971,4.59976,2470.087,2020-7-12T15:48:30Z
2020-07-12T13:50:47Z,42.805,6.029,13.2974,4.59978,2470.124,2020-7-12T15:51:34Z
2020-07-12T13:53:50Z,42.805,6.029,13.2974,4.59977,2470.087,2020-7-12T15:54:37Z
2020-07-12T13:56:54Z,42.805,6.029,13.2976,4.59977,2470.087,2020-7-12T15:57:40Z
2020-07-12T13:59:57Z,42.805,6.029,13.2974,4.59977,2470.11,2020-7-12T16:00:43Z
2020-07-12T14:03:00Z,42.805,6.029,13.2977,4.59978,2470.087,2020-7-12T16:03:47Z
2020-07-12T14:06:03Z,42.805,6.029,13.2973,4.59977,2470.11,2020-7-12T16:06:50Z
2020-07-12T14:09:07Z,42.805,6.029,13.2976,4.59977,2470.087,2020-7-12T16:09:53Z
2020-07-12T14:12:10Z,42.805,6.029,13.2973,4.59976,2470.1,2020-7-12T16:12:56Z
2020-07-12T14:15:13Z,42.805,6.029,13.2976,4.59978,2470.063,2020-7-12T16:16:00Z
2020-07-12T14:18:16Z,42.805,6.029,13.2974,4.59978,2470.11,2020-7-12T16:19:03Z
2020-07-12T14:21:20Z,42.805,6.029,13.2975,4.59977,2470.124,2020-7-12T16:22:06Z
2020-07-12T14:24:23Z,42.805,6.029,13.2969,4.59978,2470.063,2020-7-12T16:25:09Z
2020-07-12T14:27:26Z,42.805,6.029,13.2974,4.59977,2470.11,2020-7-12T16:28:13Z
2020-07-12T14:30:29Z,42.805,6.029,13.2974,4.59976,2470.063,2020-7-12T16:31:16Z
2020-07-12T14:33:32Z,42.805,6.029,13.2974,4.59976,2470.1,2020-7-12T16:34:19Z
2020-07-12T14:36:36Z,42.805,6.029,13.2973,4.59978,2470.124,2020-7-12T16:37:22Z
2020-07-12T14:39:39Z,42.805,6.029,13.2974,4.59976,2470.053,2020-7-12T16:40:25Z
2020-07-12T14:42:42Z,42.805,6.029,13.2976,4.59977,2470.087,2020-7-12T16:43:29Z
2020-07-12T14:45:45Z,42.805,6.029,13.2976,4.59978,2470.1,2020-7-12T16:46:32Z
2020-07-12T14:48:49Z,42.805,6.029,13.2977,4.59978,2470.087,2020-7-12T16:49:35Z
2020-07-12T14:51:52Z,42.805,6.029,13.2976,4.59976,2470.04,2020-7-12T16:52:38Z
2020-07-12T14:54:55Z,42.805,6.029,13.2972,4.59977,2470.1,2020-7-12T16:55:42Z
2020-07-12T14:57:58Z,42.805,6.029,13.2973,4.59978,2470.077,2020-7-12T16:58:45Z
2020-07-12T15:01:02Z,42.805,6.029,13.2977,4.59976,2470.063,2020-7-12T17:01:48Z
2020-07-12T15:04:05Z,42.805,6.029,13.2971,4.59976,2470.063,2020-7-12T17:04:52Z
2020-07-12T15:07:08Z,42.805,6.029,13.2978,4.59978,2470.063,2020-7-12T17:07:55Z
2020-07-12T15:10:12Z,42.805,6.029,13.2976,4.59976,2470.077,2020-7-12T17:10:58Z
2020-07-12T15:13:15Z,42.805,6.029,13.2976,4.59977,2470.124,2020-7-12T17:14:02Z